COSMOS 2251 DEB, 35028

Orbit data source: Space-Track

COSMOS 2251 DEB, 35028 is space debris in LEO originally from a launch on Wed, 16 Jun 1993 UTC launched from the Plesetsk Missile And Space Complex (PKMTR). The debris from Iridium 33, an American commercial communications satellite, has been tracked extensively since its accidental collision with the defunct Russian satellite Cosmos 2251 in 2009. This event, occurring at high speed in low Earth orbit (LEO), generated thousands of pieces of space debris, significantly increasing the risk of further collisions. The Iridium 33 debris cloud has impacted space traffic management and orbital debris mitigation strategies, making it a subject of ongoing study in space situational awareness.

Loading next visibility...
Identifier
35028, 1993-036AGR
Orbit
LEO
Country
Flag of CISCIS
Related business
Manufacturer
Unknown
Mission
Spacecraft
Bus & Motor
Unknown
Mass
Unknown
Launch date (UTC)
Icon of a cake. It is the launch day of the satellite!1993-06-16 (33 years ago)
Launch vehicle
Unknown
Launch site
Plesetsk Missile And Space Complex (PKMTR)
Object type
Payload
Rocket body
Debris
Shape & HBR
Unknown shape, 0.1 m
Radar Cross Section
Small (<0.1 m²)

Expand to show TLE details & history
Last TLE update: 4 days ago

TLE from 4 days ago
0 COSMOS 2251 DEB
1 35028U 93036AGR 26163.70480503  .00000220  00000-0  53622-4 0  9990
2 35028  74.0386 285.6178 0083106  13.1698  52.7025 14.56725250909355
Epoch: 2026-06-12T16:54Z
TLE epoch observation values (Epoch: 2026-06-12T16:54:55.154Z)
Latitude
62.06278°
Longitude
163.29869°
Altitude
678.692 km
Speed
7.542 km/s
True Right ascension
21h 12m 14s
True Declination
61° 55' 07"
Sunlit
Object was in daylight at epoch
Visualization orbit readout
Latitude
Unknown
Longitude
Unknown
Altitude
Unknown
Speed
Unknown
Apparent Right ascension
Unknown
Apparent Declination
Unknown
Sunlit
N/A
Visualization observer readout
Local Sidereal Time
23:55:58
Azimuth
Unknown
Elevation
Unknown
Doppler factor
Unknown
Orbital elements
Apogee altitude
760.203 km
Perigee altitude
642.533 km
Semi-major axis
7,079.505 km
Eccentricity
0.00831
Inclination
74.0386°
RAAN
285.6178°
Arg. of periapsis
13.1698°
True anomaly
53.46485°
Mean anomaly
52.7025°
Eccentric anomaly
53.0832°
Mean motion
3.64367 °/min
Orbital period
98.8 mins
BSTAR
0.000053622

Documentation

Showing up to 5 results
|